Total_Precipitation_Accumulation
0.00 0.04 0.17 0.36 0.78 1.12 1.11 0.70 0.52 0.49 0.55 0.53 0.47 0.43 0.47 0.43 0.55 0.97 0.67 0.38 0.16 0.06 0.04 0.08 0.15 0.13 0.11 0.11 0.11 0.11 0.11 0.10 0.10 0.09 0.07 0.06 0.05 0.05 0.05 0.05 0.05 0.06 0.07 0.07 0.07 0.07 0.08 0.10 0.10
0.02 0.07 0.23 0.62 0.95 1.11 1.07 0.61 0.35 0.44 0.53 0.66 0.64 0.50 0.40 0.41 0.41 0.33 0.29 0.42 0.15 0.08 0.05 0.05 0.11 0.12 0.10 0.09 0.11 0.11 0.11 0.10 0.09 0.07 0.06 0.06 0.06 0.07 0.07 0.06 0.06 0.07 0.08 0.08 0.08 0.07 0.08 0.08 0.09
0.03 0.12 0.26 0.53 0.65 0.71 0.77 0.47 0.35 0.31 0.49 0.72 0.69 0.46 0.45 0.48 0.39 0.26 0.25 0.34 0.17 0.11 0.06 0.06 0.11 0.10 0.09 0.10 0.11 0.11 0.11 0.09 0.08 0.08 0.07 0.06 0.07 0.08 0.09 0.09 0.09 0.08 0.10 0.10 0.10 0.09 0.08 0.08 0.10
0.05 0.16 0.33 0.37 0.26 0.23 0.35 0.40 0.43 0.41 0.60 0.74 0.60 0.50 0.49 0.47 0.41 0.27 0.24 0.35 0.21 0.17 0.09 0.09 0.13 0.13 0.11 0.10 0.10 0.12 0.12 0.11 0.10 0.09 0.08 0.08 0.08 0.09 0.10 0.10 0.11 0.11 0.12 0.12 0.12 0.11 0.10 0.11 0.13
0.04 0.17 0.33 0.25 0.16 0.14 0.18 0.24 0.33 0.49 0.66 0.77 0.66 0.62 0.64 0.46 0.38 0.31 0.24 0.35 0.26 0.21 0.18 0.17 0.19 0.17 0.14 0.13 0.13 0.13 0.12 0.12 0.10 0.09 0.09 0.09 0.10 0.11 0.11 0.10 0.10 0.11 0.14 0.17 0.19 0.17 0.15 0.15 0.15
0.03 0.12 0.21 0.14 0.07 0.08 0.14 0.20 0.35 0.54 0.56 0.64 0.74 0.80 0.72 0.51 0.43 0.36 0.34 0.42 0.34 0.24 0.21 0.25 0.24 0.22 0.18 0.16 0.17 0.16 0.14 0.13 0.13 0.11 0.12 0.14 0.14 0.15 0.13 0.12 0.11 0.12 0.14 0.17 0.21 0.22 0.20 0.19 0.21
0.02 0.05 0.08 0.06 0.03 0.06 0.14 0.26 0.32 0.45 0.51 0.71 0.76 0.79 0.77 0.70 0.56 0.45 0.55 0.77 0.67 0.47 0.32 0.28 0.25 0.25 0.22 0.23 0.24 0.23 0.20 0.18 0.17 0.15 0.15 0.17 0.19 0.19 0.20 0.22 0.19 0.18 0.20 0.22 0.24 0.25 0.30 0.28 0.27
0.00 0.02 0.03 0.03 0.02 0.06 0.13 0.21 0.30 0.43 0.55 0.62 0.70 0.81 0.82 0.75 0.65 0.68 0.84 1.16 1.19 0.98 0.69 0.40 0.32 0.34 0.32 0.28 0.28 0.28 0.25 0.23 0.22 0.22 0.22 0.24 0.28 0.32 0.36 0.34 0.32 0.33 0.36 0.35 0.33 0.31 0.35 0.42 0.42
0.00 0.02 0.02 0.02 0.01 0.08 0.17 0.22 0.27 0.31 0.41 0.62 0.80 0.95 0.86 0.68 0.70 0.87 1.04 1.25 1.31 1.13 0.93 0.71 0.58 0.46 0.42 0.42 0.35 0.37 0.35 0.34 0.34 0.41 0.42 0.44 0.53 0.58 0.65 0.60 0.60 0.59 0.62 0.66 0.65 0.61 0.65 0.69 0.62
0.00 0.01 0.01 0.00 0.00 0.03 0.10 0.20 0.25 0.36 0.56 1.02 1.29 1.17 0.94 0.80 0.88 1.07 1.19 1.18 1.24 1.23 1.10 1.07 0.92 0.76 0.70 0.67 0.67 0.72 0.68 0.71 0.69 0.84 0.86 0.95 1.04 0.88 0.70 0.86 1.00 0.96 1.06 1.12 1.20 1.39 1.30 1.13 0.92
0.00 0.00 0.00 0.00 0.00 0.02 0.05 0.12 0.23 0.40 0.77 1.30 1.53 1.23 1.06 1.00 1.02 1.14 1.40 1.42 1.48 1.48 1.33 1.35 1.20 1.08 1.08 1.06 1.01 1.05 1.12 1.20 1.23 1.27 1.33 1.53 1.48 1.21 1.01 1.20 1.44 1.43 1.48 1.51 1.78 1.99 1.61 1.52 1.49
0.00 0.00 0.00 0.00 0.01 0.01 0.04 0.11 0.28 0.54 0.94 1.23 1.15 0.97 0.99 1.15 1.19 1.31 1.55 1.80 1.87 1.96 1.83 1.62 1.49 1.56 1.53 1.39 1.33 1.19 1.10 1.16 1.25 1.35 1.40 1.74 1.81 1.73 1.63 1.66 1.57 1.74 1.83 2.05 2.10 2.10 1.93 1.91 1.82
0.00 0.00 0.00 0.00 0.01 0.03 0.06 0.13 0.32 0.64 0.86 0.92 0.79 0.81 1.08 1.32 1.41 1.74 2.09 2.13 2.12 2.36 2.48 2.27 2.15 2.00 1.77 1.68 1.43 1.26 1.16 1.08 1.05 1.24 1.40 1.69 1.88 1.92 2.00 1.70 1.60 1.56 1.74 1.98 1.95 1.83 1.91 2.02 2.03
0.00 0.00 0.01 0.01 0.02 0.04 0.07 0.14 0.33 0.56 0.65 0.66 0.71 0.92 1.12 1.46 1.57 1.97 2.48 2.58 2.71 2.89 3.06 2.96 2.83 2.52 2.17 1.91 1.70 1.59 1.35 1.15 1.01 1.14 1.20 1.56 1.87 1.83 1.70 1.68 1.66 1.57 1.71 1.76 1.82 1.87 2.05 2.11 2.19
0.00 0.01 0.06 0.07 0.05 0.06 0.07 0.19 0.40 0.60 0.70 0.63 0.77 0.96 1.29 1.63 1.84 2.14 2.40 2.76 3.16 3.48 3.53 3.45 3.40 3.12 2.84 2.54 2.18 1.83 1.60 1.33 1.25 1.17 1.12 1.41 1.68 1.73 1.71 1.63 1.50 1.54 1.64 1.74 1.78 1.80 1.89 1.79 1.84
0.02 0.05 0.15 0.16 0.10 0.10 0.11 0.38 0.69 0.68 0.68 0.71 0.82 1.11 1.42 1.68 2.06 2.22 2.43 2.73 3.15 3.65 3.96 3.95 3.44 3.20 3.06 2.81 2.41 2.11 1.94 1.79 1.62 1.26 1.12 1.18 1.36 1.46 1.49 1.35 1.34 1.44 1.34 1.36 1.41 1.39 1.41 1.44 1.57
0.05 0.09 0.16 0.25 0.16 0.13 0.23 0.70 0.99 0.76 0.60 0.70 0.91 1.13 1.50 1.77 2.16 2.23 2.32 2.52 3.00 3.78 4.52 4.45 3.89 3.39 3.04 2.83 2.59 2.38 2.16 1.86 1.60 1.34 1.20 1.06 1.00 0.93 0.97 0.93 0.96 1.00 1.00 1.01 0.97 1.13 1.19 1.25 1.35
0.05 0.10 0.22 0.35 0.22 0.20 0.30 0.66 0.70 0.63 0.77 0.75 0.81 1.00 1.29 1.41 1.70 1.90 2.12 2.53 3.25 4.25 4.93 4.82 4.21 3.61 3.19 2.89 2.59 2.30 2.00 1.75 1.42 1.30 1.16 0.92 0.86 0.74 0.71 0.68 0.69 0.66 0.69 0.75 0.79 0.84 0.91 0.93 0.97
0.04 0.09 0.22 0.26 0.20 0.28 0.36 0.56 0.65 0.76 0.93 0.93 0.79 0.83 1.10 1.27 1.51 1.80 2.31 3.07 4.03 4.81 5.01 4.48 3.94 3.54 3.02 2.55 1.95 1.54 1.33 1.20 1.00 0.83 0.70 0.62 0.57 0.56 0.58 0.51 0.50 0.48 0.49 0.49 0.52 0.59 0.64 0.65 0.72
0.06 0.08 0.19 0.26 0.18 0.21 0.35 0.65 0.94 0.91 0.83 0.80 0.80 0.73 0.89 1.26 1.68 2.22 3.13 3.73 3.87 3.87 3.47 3.01 2.70 2.46 2.04 1.60 1.27 1.08 0.98 0.81 0.65 0.57 0.54 0.47 0.42 0.41 0.39 0.38 0.38 0.37 0.37 0.39 0.42 0.46 0.46 0.46 0.55
0.10 0.10 0.18 0.25 0.15 0.16 0.36 0.79 1.06 1.07 0.83 0.68 0.65 0.59 0.83 1.26 1.81 2.54 3.07 3.10 2.67 2.31 2.09 1.95 1.87 1.53 1.35 1.21 1.04 0.90 0.82 0.66 0.55 0.50 0.43 0.35 0.30 0.29 0.29 0.28 0.28 0.32 0.34 0.37 0.40 0.39 0.39 0.38 0.39
0.09 0.06 0.06 0.09 0.15 0.33 0.52 1.02 1.16 0.95 0.87 0.69 0.65 0.61 0.73 1.01 1.28 1.67 1.88 1.70 1.61 1.64 1.67 1.74 1.64 1.30 1.13 0.99 0.83 0.66 0.57 0.49 0.43 0.39 0.36 0.32 0.26 0.23 0.21 0.20 0.20 0.21 0.27 0.35 0.33 0.37 0.37 0.35 0.29
0.04 0.03 0.04 0.11 0.22 0.41 0.60 0.84 0.94 0.73 0.85 0.67 0.51 0.49 0.52 0.66 0.73 0.79 0.86 0.90 0.97 1.04 1.24 1.43 1.49 1.35 1.11 0.96 0.84 0.74 0.59 0.52 0.47 0.44 0.42 0.38 0.31 0.26 0.23 0.22 0.20 0.18 0.19 0.24 0.26 0.34 0.38 0.38 0.32
0.03 0.05 0.12 0.23 0.39 0.89 0.84 0.81 1.00 0.89 0.88 0.65 0.46 0.37 0.42 0.54 0.60 0.60 0.57 0.61 0.71 0.81 0.93 1.10 1.29 1.36 1.22 1.05 0.93 0.82 0.70 0.62 0.54 0.48 0.44 0.39 0.34 0.30 0.24 0.23 0.22 0.21 0.20 0.19 0.18 0.23 0.30 0.37 0.38
0.05 0.07 0.24 0.57 0.98 1.13 0.70 0.77 1.03 0.76 0.66 0.49 0.28 0.23 0.34 0.51 0.61 0.61 0.54 0.45 0.46 0.55 0.65 0.68 0.80 0.94 0.96 0.89 0.82 0.79 0.75 0.62 0.49 0.41 0.35 0.35 0.31 0.28 0.24 0.22 0.22 0.22 0.23 0.22 0.20 0.19 0.22 0.29 0.34
0.05 0.04 0.11 0.21 0.32 0.51 0.65 1.03 1.15 0.79 0.51 0.27 0.15 0.16 0.27 0.37 0.38 0.40 0.35 0.28 0.23 0.27 0.39 0.44 0.53 0.62 0.71 0.70 0.65 0.61 0.59 0.47 0.40 0.44 0.34 0.31 0.34 0.34 0.30 0.23 0.20 0.20 0.20 0.21 0.21 0.19 0.21 0.24 0.28
0.05 0.03 0.04 0.07 0.11 0.31 0.64 0.93 0.87 0.67 0.46 0.28 0.17 0.14 0.13 0.14 0.15 0.19 0.22 0.21 0.18 0.19 0.25 0.34 0.44 0.53 0.58 0.61 0.59 0.49 0.45 0.42 0.40 0.39 0.34 0.29 0.35 0.35 0.32 0.26 0.21 0.20 0.20 0.21 0.22 0.21 0.23 0.25 0.28
0.05 0.04 0.04 0.05 0.11 0.22 0.48 0.85 0.99 0.79 0.53 0.29 0.21 0.15 0.13 0.13 0.12 0.12 0.13 0.15 0.13 0.14 0.19 0.29 0.39 0.49 0.51 0.54 0.52 0.44 0.46 0.42 0.40 0.37 0.36 0.35 0.32 0.31 0.29 0.25 0.22 0.21 0.21 0.22 0.23 0.23 0.26 0.29 0.34
0.07 0.06 0.06 0.05 0.07 0.13 0.31 0.52 0.47 0.39 0.31 0.23 0.20 0.13 0.11 0.10 0.08 0.07 0.07 0.10 0.11 0.12 0.14 0.20 0.28 0.36 0.40 0.42 0.43 0.42 0.40 0.37 0.38 0.39 0.37 0.36 0.34 0.33 0.29 0.27 0.24 0.23 0.22 0.24 0.27 0.26 0.25 0.28 0.34
0.08 0.09 0.09 0.08 0.07 0.09 0.15 0.32 0.26 0.25 0.24 0.19 0.16 0.11 0.09 0.07 0.06 0.05 0.05 0.07 0.10 0.12 0.13 0.16 0.20 0.22 0.28 0.31 0.32 0.35 0.36 0.34 0.34 0.34 0.33 0.34 0.33 0.33 0.31 0.30 0.26 0.21 0.19 0.25 0.29 0.29 0.27 0.29 0.33